Weather History for Findlay, OH

Change the Weather History Date:

Saturday, October 29, 2011

  Actual Average Record
Temperature  
Mean Temperature 42 °F -  
Max Temperature 52 °F 55 °F 77 °F (1999)
Min Temperature 32 °F 37 °F 22 °F (1965)
Degree Days  
Heating Degree Days 24    
Moisture  
Dew Point 34 °F    
Average Humidity 82    
Maximum Humidity 100    
Minimum Humidity 54    
Precipitation  
Precipitation 0.00 in - - ()
Sea Level Pressure  
Sea Level Pressure 30.07 in    
Wind  
Wind Speed 4 mph (South)    
Max Wind Speed 13 mph    
Max Gust Speed 25 mph    
Visibility 8 miles    
Events      
Averages and records for this station are not official NWS values.
T = Trace of Precipitation, MM = Missing Value Source: NWS Daily Summary

Daily Weather History Graph

Daily Weather History Graph

Search for Another Location

Airport:

Trip Planner

Search our weather history database for the weather conditions in past years. The results will help you decide how hot, cold, wet, or windy it might be!

Date:

Astronomy

Oct. 29, 2011 Rise Set
Actual Time 8:01 AM EDT 6:34 PM EDT
Civil Twilight 7:33 AM EDT 7:02 PM EDT
Nautical Twilight 7:00 AM EDT 7:35 PM EDT
Astronomical Twilight 6:29 AM EDT 8:07 PM EDT
Moon 11:24 AM EDT (10/29) 8:55 PM EDT (10/29)
Length of Visible Light 11h 29m
Length of Day
10h 32m
Waxing Crescent, 11% of the Moon is Illuminated
Oct 29
Waxing Crescent
Nov 2
First Quarter
Nov 10
Full
Nov 18
Last Quarter
Nov 25
New

Hourly Weather History & Observations

Time (EDT) Temp. Windchill Dew Point Humidity Pressure Visibility Wind Dir Wind Speed Gust Speed Precip Events Conditions
12:53 AM 35.1 °F 32.2 °F 32.0 °F 89% 30.09 in 10.0 mi South 3.5 mph - N/A   Clear
1:53 AM 34.0 °F 31.0 °F 32.0 °F 92% 30.08 in 10.0 mi South 3.5 mph - N/A   Clear
2:53 AM 34.0 °F 31.0 °F 30.9 °F 89% 30.07 in 10.0 mi SSE 3.5 mph - N/A   Clear
3:53 AM 33.1 °F - 30.9 °F 92% 30.06 in 8.0 mi Calm Calm - N/A   Clear
4:53 AM 32.0 °F 27.5 °F 30.0 °F 92% 30.06 in 7.0 mi SSE 4.6 mph - N/A   Clear
6:53 AM 33.1 °F 28.7 °F 30.9 °F 92% 30.06 in 7.0 mi South 4.6 mph - N/A   Overcast
7:53 AM 33.1 °F 30.0 °F 30.9 °F 92% 30.06 in 6.0 mi SSE 3.5 mph - N/A   Partly Cloudy
8:53 AM 34.0 °F 28.8 °F 32.0 °F 92% 30.07 in 4.0 mi SSE 5.8 mph - N/A   Overcast
9:53 AM 37.9 °F 34.4 °F 35.1 °F 89% 30.07 in 5.0 mi SSE 4.6 mph - 0.00 in   Overcast
10:53 AM 43.0 °F 38.8 °F 39.0 °F 86% 30.06 in 8.0 mi SSW 6.9 mph - N/A   Partly Cloudy
11:53 AM 46.0 °F 43.1 °F 37.0 °F 71% 30.06 in 10.0 mi SSE 5.8 mph - N/A   Overcast
12:53 PM 48.0 °F - 36.0 °F 63% 30.06 in 10.0 mi SSW 6.9 mph - N/A   Overcast
1:53 PM 48.9 °F - 35.1 °F 59% 30.03 in 10.0 mi SSW 4.6 mph - N/A   Overcast
2:53 PM 51.1 °F - 35.1 °F 54% 30.02 in 10.0 mi SW 6.9 mph - N/A   Overcast
3:53 PM 51.1 °F - 35.1 °F 54% 30.01 in 10.0 mi WSW 4.6 mph - N/A   Partly Cloudy
4:53 PM 48.9 °F - 33.1 °F 54% 30.02 in 10.0 mi West 3.5 mph - N/A   Partly Cloudy
5:53 PM 46.9 °F - 36.0 °F 66% 30.03 in 10.0 mi SSW 3.5 mph - N/A   Partly Cloudy
6:27 PM 42.8 °F 36.2 °F 37.4 °F 81% 30.06 in 10.0 mi North 12.7 mph 25.3 mph 0.01 in   Scattered Clouds
8:53 PM 37.0 °F - 35.1 °F 93% 30.10 in 10.0 mi Calm Calm - N/A   Clear
9:53 PM 36.0 °F - 34.0 °F 93% 30.12 in 7.0 mi Calm Calm - N/A   Clear
10:53 PM 33.1 °F - 33.1 °F 100% 30.13 in 4.0 mi Calm Calm - N/A   Clear
11:28 PM 33.8 °F - 32.0 °F 93% 30.12 in 1.8 mi Calm Calm - N/A   Clear
11:45 PM 33.8 °F - 32.0 °F 93% 30.12 in 2.5 mi Calm Calm - N/A   Clear
11:53 PM 33.1 °F - 32.0 °F 96% 30.12 in 3.0 mi Calm Calm - N/A   Clear